User: anonymous   Login
Location: SAPM � Hemmingford
(45.0500°N, 73.5833°W)
Time: 16:37:21
(UTC-04:00)
Language:

Iridium 75 - Orbit

View from above orbital plane
View from above orbital plane
View from above satellite
View from above satellite

Ground track
Ground track

The orbit data is extracted from the following two-line orbital elements,

1 25346U 98032E   17119.85143048 +.00000166 +00000-0 +52279-4 0  9996
2 25346 086.3977 244.2944 0002220 097.4768 262.6680 14.34217612992470
Epoch (UTC): 29 April 2017 20:26:03
Eccentricity: 0.0002220
inclination: 86.3977°
perigee height: 776 km
apogee height: 779 km
right ascension of ascending node: 244.2944°
argument of perigee: 97.4768°
revolutions per day: 14.34217612
mean anomaly at epoch: 262.6680°
orbit number at epoch: 99247

The dashed part of the orbit path shows where the satellite is in the earth's shadow,  

DLR